Wetterdaten: Donnerstag, 03.09.2015
Datum Zeit Auen-Temp. Temp gefhlt Luftfeuchte Luftdruck Regen Wind Richtung Richtung Taupunkt Windben
03.09.2015 00:00 12,3 C 12,3 C 88 % 1010,1 hPa 0,0 mm 0,3 km/h (0 Bft) SO 135 10,4 C 0,0 km/h (0 Bft)
03.09.2015 00:05 12,3 C 12,3 C 88 % 1010,1 hPa 0,0 mm 0,0 km/h (0 Bft) O-SO 112 10,4 C 0,0 km/h (0 Bft)
03.09.2015 00:10 12,3 C 12,3 C 88 % 1010,1 hPa 0,0 mm 0,0 km/h (0 Bft) NO 45 10,4 C 0,0 km/h (0 Bft)
03.09.2015 00:15 12,3 C 12,2 C 91 % 1009,9 hPa 0,0 mm 0,3 km/h (0 Bft) O-NO 67 10,9 C 5,4 km/h (1 Bft)
03.09.2015 00:20 12,3 C 12,2 C 91 % 1009,9 hPa 0,0 mm 1,0 km/h (0 Bft) N-NO 22 10,9 C 0,0 km/h (0 Bft)
03.09.2015 00:25 12,3 C 12,2 C 91 % 1009,9 hPa 0,0 mm 1,0 km/h (0 Bft) NO 45 10,9 C 0,0 km/h (0 Bft)
03.09.2015 00:30 12,2 C 12,1 C 91 % 1009,9 hPa 0,0 mm 0,0 km/h (0 Bft) N-NO 22 10,8 C 0,0 km/h (0 Bft)
03.09.2015 00:35 12,2 C 12,1 C 91 % 1009,8 hPa 0,0 mm 0,0 km/h (0 Bft) NO 45 10,8 C 0,0 km/h (0 Bft)
03.09.2015 00:40 12,2 C 12,1 C 91 % 1009,8 hPa 0,0 mm 0,5 km/h (0 Bft) O-NO 67 10,8 C 0,0 km/h (0 Bft)
03.09.2015 00:44 12,2 C 12,1 C 91 % 1009,8 hPa 0,0 mm 0,5 km/h (0 Bft) NO 45 10,8 C 0,0 km/h (0 Bft)
03.09.2015 00:50 12,2 C 12,1 C 91 % 1009,8 hPa 0,0 mm 0,0 km/h (0 Bft) O 90 10,8 C 0,0 km/h (0 Bft)
03.09.2015 00:55 12,2 C 12,1 C 91 % 1009,7 hPa 0,0 mm 0,3 km/h (0 Bft) NO 45 10,8 C 0,0 km/h (0 Bft)
03.09.2015 01:00 12,2 C 12,1 C 91 % 1009,7 hPa 0,0 mm 0,3 km/h (0 Bft) N-NO 22 10,8 C 0,0 km/h (0 Bft)
03.09.2015 01:05 12,2 C 12,1 C 91 % 1009,7 hPa 0,0 mm 0,0 km/h (0 Bft) NW 315 10,8 C 0,0 km/h (0 Bft)
03.09.2015 01:10 12,1 C 12,0 C 91 % 1009,7 hPa 0,0 mm 0,0 km/h (0 Bft) NW 315 10,7 C 0,0 km/h (0 Bft)
03.09.2015 01:15 12,0 C 11,9 C 91 % 1009,6 hPa 0,0 mm 0,0 km/h (0 Bft) S-SW 202 10,6 C 0,0 km/h (0 Bft)
03.09.2015 01:20 12,0 C 11,9 C 91 % 1009,6 hPa 0,0 mm 0,3 km/h (0 Bft) W 270 10,6 C 0,0 km/h (0 Bft)
03.09.2015 01:25 12,1 C 12,0 C 91 % 1009,6 hPa 0,0 mm 0,3 km/h (0 Bft) W-NW 292 10,7 C 2,8 km/h (1 Bft)
03.09.2015 01:30 12,0 C 11,9 C 91 % 1009,6 hPa 0,0 mm 2,1 km/h (1 Bft) W-SW 247 10,6 C 0,0 km/h (0 Bft)
03.09.2015 01:35 12,0 C 11,9 C 91 % 1009,5 hPa 0,0 mm 2,1 km/h (1 Bft) SW 225 10,6 C 0,0 km/h (0 Bft)
03.09.2015 01:40 12,0 C 11,9 C 91 % 1009,5 hPa 0,0 mm 0,3 km/h (0 Bft) NW 315 10,6 C 0,0 km/h (0 Bft)
03.09.2015 01:45 12,0 C 11,9 C 91 % 1009,5 hPa 0,0 mm 0,0 km/h (0 Bft) NW 315 10,6 C 0,0 km/h (0 Bft)
03.09.2015 01:50 12,0 C 11,9 C 91 % 1009,5 hPa 0,0 mm 0,0 km/h (0 Bft) S-SO 157 10,6 C 0,0 km/h (0 Bft)
03.09.2015 01:55 12,0 C 11,9 C 91 % 1009,6 hPa 0,0 mm 0,0 km/h (0 Bft) S-SO 157 10,6 C 0,0 km/h (0 Bft)
03.09.2015 02:00 12,0 C 11,9 C 91 % 1009,6 hPa 0,0 mm 0,0 km/h (0 Bft) O-NO 67 10,6 C 0,0 km/h (0 Bft)
03.09.2015 02:05 12,0 C 11,9 C 91 % 1009,6 hPa 0,0 mm 0,0 km/h (0 Bft) O 90 10,6 C 0,0 km/h (0 Bft)
03.09.2015 02:10 12,0 C 11,9 C 91 % 1009,6 hPa 0,0 mm 0,0 km/h (0 Bft) O 90 10,6 C 0,0 km/h (0 Bft)
03.09.2015 02:15 12,0 C 11,9 C 91 % 1009,6 hPa 0,0 mm 0,0 km/h (0 Bft) O-NO 67 10,6 C 0,0 km/h (0 Bft)
03.09.2015 02:20 12,0 C 11,9 C 91 % 1009,6 hPa 0,0 mm 0,0 km/h (0 Bft) O-SO 112 10,6 C 0,0 km/h (0 Bft)
03.09.2015 02:25 12,0 C 11,9 C 91 % 1009,6 hPa 0,0 mm 0,0 km/h (0 Bft) O-SO 112 10,6 C 0,0 km/h (0 Bft)
03.09.2015 02:30 12,0 C 11,9 C 91 % 1009,6 hPa 0,0 mm 0,0 km/h (0 Bft) O-SO 112 10,6 C 0,0 km/h (0 Bft)
03.09.2015 02:35 12,0 C 11,9 C 91 % 1009,6 hPa 0,0 mm 0,0 km/h (0 Bft) W-NW 292 10,6 C 2,8 km/h (1 Bft)
03.09.2015 02:40 12,0 C 11,9 C 91 % 1009,6 hPa 0,0 mm 0,5 km/h (0 Bft) NW 315 10,6 C 0,0 km/h (0 Bft)
03.09.2015 02:45 12,0 C 11,9 C 91 % 1009,6 hPa 0,0 mm 0,5 km/h (0 Bft) W 270 10,6 C 0,0 km/h (0 Bft)
03.09.2015 02:50 12,0 C 11,9 C 91 % 1009,6 hPa 0,0 mm 0,0 km/h (0 Bft) N-NW 337 10,6 C 0,0 km/h (0 Bft)
03.09.2015 02:55 12,0 C 11,9 C 91 % 1009,5 hPa 0,0 mm 0,0 km/h (0 Bft) N-NO 22 10,6 C 0,0 km/h (0 Bft)
03.09.2015 03:00 12,0 C 11,9 C 91 % 1009,5 hPa 0,0 mm 0,0 km/h (0 Bft) O-NO 67 10,6 C 0,0 km/h (0 Bft)
03.09.2015 03:05 12,0 C 11,9 C 91 % 1009,5 hPa 0,0 mm 0,0 km/h (0 Bft) O-SO 112 10,6 C 0,0 km/h (0 Bft)
03.09.2015 03:10 12,0 C 11,9 C 91 % 1009,5 hPa 0,0 mm 0,0 km/h (0 Bft) SO 135 10,6 C 0,0 km/h (0 Bft)
03.09.2015 03:15 12,0 C 11,9 C 91 % 1009,2 hPa 0,0 mm 0,0 km/h (0 Bft) O-SO 112 10,6 C 0,0 km/h (0 Bft)
03.09.2015 03:20 12,0 C 11,9 C 91 % 1009,2 hPa 0,0 mm 0,0 km/h (0 Bft) S 180 10,6 C 0,0 km/h (0 Bft)
03.09.2015 03:25 12,0 C 11,9 C 91 % 1009,2 hPa 0,0 mm 0,0 km/h (0 Bft) S 180 10,6 C 0,0 km/h (0 Bft)
03.09.2015 03:30 12,0 C 11,9 C 91 % 1009,2 hPa 0,0 mm 0,0 km/h (0 Bft) S-SO 157 10,6 C 0,0 km/h (0 Bft)
03.09.2015 03:35 12,0 C 11,9 C 91 % 1009,2 hPa 0,0 mm 0,0 km/h (0 Bft) S-SO 157 10,6 C 0,0 km/h (0 Bft)
03.09.2015 03:40 12,0 C 11,9 C 91 % 1009,2 hPa 0,0 mm 0,0 km/h (0 Bft) S-SO 157 10,6 C 0,0 km/h (0 Bft)
03.09.2015 03:45 12,0 C 11,9 C 91 % 1009,2 hPa 0,0 mm 0,0 km/h (0 Bft) S 180 10,6 C 0,0 km/h (0 Bft)
03.09.2015 03:50 12,0 C 11,9 C 91 % 1009,2 hPa 0,0 mm 0,0 km/h (0 Bft) NW 315 10,6 C 0,0 km/h (0 Bft)
03.09.2015 03:55 12,0 C 11,9 C 91 % 1009,2 hPa 0,0 mm 0,0 km/h (0 Bft) NW 315 10,6 C 0,0 km/h (0 Bft)
03.09.2015 04:00 12,0 C 11,9 C 91 % 1009,2 hPa 0,0 mm 0,0 km/h (0 Bft) W-SW 247 10,6 C 0,0 km/h (0 Bft)
03.09.2015 04:05 12,0 C 11,9 C 91 % 1009,2 hPa 0,0 mm 0,0 km/h (0 Bft) S 180 10,6 C 0,0 km/h (0 Bft)
03.09.2015 04:10 12,0 C 11,9 C 91 % 1009,2 hPa 0,0 mm 0,0 km/h (0 Bft) SW 225 10,6 C 0,0 km/h (0 Bft)
03.09.2015 04:15 12,0 C 11,9 C 91 % 1009,2 hPa 0,0 mm 0,0 km/h (0 Bft) W-SW 247 10,6 C 0,0 km/h (0 Bft)
03.09.2015 04:20 12,0 C 11,9 C 91 % 1009,2 hPa 0,0 mm 0,0 km/h (0 Bft) SO 135 10,6 C 0,0 km/h (0 Bft)
03.09.2015 04:25 12,0 C 11,9 C 92 % 1009,2 hPa 0,7 mm 0,0 km/h (0 Bft) O-SO 112 10,7 C 0,0 km/h (0 Bft)
03.09.2015 04:30 12,0 C 11,9 C 92 % 1009,2 hPa 0,0 mm 0,0 km/h (0 Bft) O-SO 112 10,7 C 0,0 km/h (0 Bft)
03.09.2015 04:35 12,0 C 11,9 C 92 % 1009,0 hPa 0,0 mm 0,0 km/h (0 Bft) SO 135 10,7 C 0,0 km/h (0 Bft)
03.09.2015 04:40 11,9 C 11,8 C 92 % 1009,0 hPa 0,0 mm 0,0 km/h (0 Bft) S-SO 157 10,6 C 0,0 km/h (0 Bft)
03.09.2015 04:45 12,0 C 11,9 C 92 % 1009,0 hPa 0,0 mm 0,0 km/h (0 Bft) S-SO 157 10,7 C 0,0 km/h (0 Bft)
03.09.2015 04:50 12,0 C 11,9 C 92 % 1009,0 hPa 0,0 mm 0,0 km/h (0 Bft) O 90 10,7 C 0,0 km/h (0 Bft)
03.09.2015 04:55 11,9 C 11,8 C 92 % 1008,6 hPa 0,0 mm 0,0 km/h (0 Bft) O-SO 112 10,6 C 0,0 km/h (0 Bft)
03.09.2015 05:00 11,9 C 11,8 C 92 % 1008,6 hPa 0,0 mm 0,0 km/h (0 Bft) S 180 10,6 C 0,0 km/h (0 Bft)
03.09.2015 05:05 11,9 C 11,8 C 92 % 1008,6 hPa 0,0 mm 0,0 km/h (0 Bft) SW 225 10,6 C 0,0 km/h (0 Bft)
03.09.2015 05:10 11,9 C 11,8 C 92 % 1008,6 hPa 0,0 mm 0,0 km/h (0 Bft) SW 225 10,6 C 0,0 km/h (0 Bft)
03.09.2015 05:15 11,9 C 11,8 C 92 % 1008,8 hPa 0,0 mm 0,0 km/h (0 Bft) SW 225 10,6 C 0,0 km/h (0 Bft)
03.09.2015 05:20 11,9 C 11,8 C 92 % 1008,8 hPa 0,0 mm 0,0 km/h (0 Bft) SW 225 10,6 C 0,0 km/h (0 Bft)
03.09.2015 05:25 11,9 C 11,8 C 92 % 1008,8 hPa 0,0 mm 0,0 km/h (0 Bft) S 180 10,6 C 0,0 km/h (0 Bft)
03.09.2015 05:30 11,9 C 11,8 C 92 % 1008,8 hPa 0,0 mm 0,0 km/h (0 Bft) NW 315 10,6 C 0,0 km/h (0 Bft)
03.09.2015 05:35 11,9 C 11,8 C 92 % 1008,4 hPa 0,0 mm 0,0 km/h (0 Bft) NW 315 10,6 C 0,0 km/h (0 Bft)
03.09.2015 05:40 11,9 C 11,8 C 92 % 1008,4 hPa 0,0 mm 0,0 km/h (0 Bft) NW 315 10,6 C 0,0 km/h (0 Bft)
03.09.2015 05:45 11,9 C 11,8 C 92 % 1008,4 hPa 0,0 mm 0,0 km/h (0 Bft) NW 315 10,6 C 0,0 km/h (0 Bft)
03.09.2015 05:50 11,9 C 11,8 C 92 % 1008,4 hPa 0,0 mm 0,0 km/h (0 Bft) W-NW 292 10,6 C 0,0 km/h (0 Bft)
03.09.2015 05:55 11,9 C 11,8 C 92 % 1008,6 hPa 0,0 mm 0,0 km/h (0 Bft) NW 315 10,6 C 0,0 km/h (0 Bft)
03.09.2015 06:00 11,9 C 11,8 C 92 % 1008,6 hPa 0,0 mm 0,0 km/h (0 Bft) NO 45 10,6 C 0,0 km/h (0 Bft)
03.09.2015 06:05 11,9 C 11,8 C 92 % 1008,6 hPa 0,0 mm 0,0 km/h (0 Bft) NO 45 10,6 C 0,0 km/h (0 Bft)
03.09.2015 06:10 11,9 C 11,8 C 92 % 1008,6 hPa 0,0 mm 0,0 km/h (0 Bft) NW 315 10,6 C 0,0 km/h (0 Bft)
03.09.2015 06:15 11,9 C 11,8 C 92 % 1008,6 hPa 0,0 mm 0,0 km/h (0 Bft) N-NW 337 10,6 C 0,0 km/h (0 Bft)
03.09.2015 06:20 11,9 C 11,8 C 92 % 1008,6 hPa 0,0 mm 0,0 km/h (0 Bft) NW 315 10,6 C 0,0 km/h (0 Bft)
03.09.2015 06:25 11,9 C 11,8 C 92 % 1008,6 hPa 0,0 mm 0,3 km/h (0 Bft) W-NW 292 10,6 C 0,0 km/h (0 Bft)
03.09.2015 06:30 11,9 C 11,8 C 92 % 1008,6 hPa 0,0 mm 0,3 km/h (0 Bft) W 270 10,6 C 0,0 km/h (0 Bft)
03.09.2015 06:35 11,9 C 11,8 C 92 % 1008,7 hPa 0,0 mm 0,0 km/h (0 Bft) W 270 10,6 C 0,0 km/h (0 Bft)
03.09.2015 06:40 11,9 C 11,8 C 92 % 1008,7 hPa 0,0 mm 0,0 km/h (0 Bft) W 270 10,6 C 0,0 km/h (0 Bft)
03.09.2015 06:45 11,9 C 11,8 C 92 % 1008,7 hPa 0,0 mm 0,0 km/h (0 Bft) W 270 10,6 C 0,0 km/h (0 Bft)
03.09.2015 06:50 12,0 C 11,9 C 92 % 1008,7 hPa 0,0 mm 0,0 km/h (0 Bft) W 270 10,7 C 0,0 km/h (0 Bft)
03.09.2015 06:55 12,0 C 11,9 C 92 % 1008,4 hPa 0,0 mm 0,0 km/h (0 Bft) W 270 10,7 C 0,0 km/h (0 Bft)
03.09.2015 07:00 12,0 C 11,9 C 92 % 1008,4 hPa 0,0 mm 0,0 km/h (0 Bft) N-NO 22 10,7 C 0,0 km/h (0 Bft)
03.09.2015 07:05 12,0 C 11,9 C 92 % 1008,4 hPa 0,0 mm 0,0 km/h (0 Bft) N-NO 22 10,7 C 0,0 km/h (0 Bft)
03.09.2015 07:10 12,0 C 11,9 C 92 % 1008,4 hPa 0,0 mm 0,0 km/h (0 Bft) NW 315 10,7 C 0,0 km/h (0 Bft)
03.09.2015 07:15 12,1 C 12,0 C 92 % 1008,3 hPa 0,0 mm 0,3 km/h (0 Bft) W 270 10,8 C 0,0 km/h (0 Bft)
03.09.2015 07:20 12,1 C 12,0 C 92 % 1008,3 hPa 0,0 mm 0,3 km/h (0 Bft) W-NW 292 10,8 C 0,0 km/h (0 Bft)
03.09.2015 07:25 12,1 C 12,0 C 92 % 1008,3 hPa 0,0 mm 0,0 km/h (0 Bft) W-NW 292 10,8 C 0,0 km/h (0 Bft)
03.09.2015 07:30 12,2 C 12,2 C 88 % 1008,3 hPa 0,0 mm 0,0 km/h (0 Bft) NO 45 10,3 C 0,0 km/h (0 Bft)
03.09.2015 07:35 12,2 C 12,2 C 88 % 1008,2 hPa 0,0 mm 0,0 km/h (0 Bft) N-NO 22 10,3 C 0,0 km/h (0 Bft)
03.09.2015 07:40 12,3 C 12,3 C 88 % 1008,2 hPa 0,0 mm 0,0 km/h (0 Bft) O-NO 67 10,4 C 0,0 km/h (0 Bft)
03.09.2015 07:45 12,3 C 12,4 C 88 % 1008,2 hPa 0,0 mm 0,0 km/h (0 Bft) NW 315 10,4 C 0,0 km/h (0 Bft)
03.09.2015 07:50 12,4 C 12,5 C 88 % 1008,2 hPa 0,0 mm 0,5 km/h (0 Bft) NW 315 10,5 C 3,6 km/h (1 Bft)
03.09.2015 07:55 12,5 C 12,7 C 88 % 1008,4 hPa 0,0 mm 2,1 km/h (1 Bft) W 270 10,6 C 9,8 km/h (2 Bft)
03.09.2015 08:00 12,4 C 12,7 C 88 % 1008,4 hPa 0,0 mm 5,4 km/h (1 Bft) W 270 10,5 C 13,2 km/h (3 Bft)
03.09.2015 08:05 12,4 C 12,7 C 88 % 1008,4 hPa 0,0 mm 3,9 km/h (1 Bft) NW 315 10,5 C 0,0 km/h (0 Bft)
03.09.2015 08:10 12,5 C 12,7 C 88 % 1008,4 hPa 0,0 mm 1,0 km/h (0 Bft) O-NO 67 10,6 C 2,8 km/h (1 Bft)
03.09.2015 08:15 12,5 C 12,7 C 88 % 1008,4 hPa 0,0 mm 1,0 km/h (0 Bft) O-SO 112 10,6 C 0,0 km/h (0 Bft)
03.09.2015 08:20 12,5 C 12,8 C 88 % 1008,4 hPa 0,0 mm 0,5 km/h (0 Bft) W 270 10,6 C 0,0 km/h (0 Bft)
03.09.2015 08:25 12,6 C 12,9 C 89 % 1008,4 hPa 0,0 mm 0,3 km/h (0 Bft) SW 225 10,8 C 0,0 km/h (0 Bft)
03.09.2015 08:30 12,8 C 13,0 C 88 % 1008,4 hPa 0,0 mm 0,0 km/h (0 Bft) W-SW 247 10,9 C 0,0 km/h (0 Bft)
03.09.2015 08:35 12,8 C 13,2 C 88 % 1008,5 hPa 0,0 mm 0,0 km/h (0 Bft) SW 225 10,9 C 0,0 km/h (0 Bft)
03.09.2015 08:40 13,1 C 13,5 C 88 % 1008,5 hPa 0,0 mm 0,3 km/h (0 Bft) W-NW 292 11,2 C 0,0 km/h (0 Bft)
03.09.2015 08:45 13,1 C 13,6 C 88 % 1008,5 hPa 0,0 mm 0,3 km/h (0 Bft) W-SW 247 11,2 C 0,0 km/h (0 Bft)
03.09.2015 08:50 13,2 C 13,6 C 88 % 1008,5 hPa 0,0 mm 0,5 km/h (0 Bft) NW 315 11,3 C 3,4 km/h (1 Bft)
03.09.2015 08:55 13,2 C 13,6 C 88 % 1008,8 hPa 0,0 mm 1,3 km/h (1 Bft) W-NW 292 11,3 C 4,9 km/h (1 Bft)
03.09.2015 09:00 13,3 C 13,7 C 88 % 1008,8 hPa 0,0 mm 2,1 km/h (1 Bft) NW 315 11,4 C 3,9 km/h (1 Bft)
03.09.2015 09:05 13,4 C 13,8 C 88 % 1008,8 hPa 0,0 mm 2,1 km/h (1 Bft) W-NW 292 11,5 C 3,6 km/h (1 Bft)
03.09.2015 09:10 13,5 C 13,9 C 88 % 1008,8 hPa 0,0 mm 1,6 km/h (1 Bft) NW 315 11,6 C 0,0 km/h (0 Bft)
03.09.2015 09:15 13,6 C 13,9 C 88 % 1008,6 hPa 0,0 mm 1,8 km/h (1 Bft) W-NW 292 11,6 C 3,6 km/h (1 Bft)
03.09.2015 09:20 13,7 C 14,0 C 88 % 1008,6 hPa 0,0 mm 1,3 km/h (1 Bft) N-NW 337 11,7 C 0,0 km/h (0 Bft)
03.09.2015 09:25 13,9 C 14,2 C 88 % 1008,6 hPa 0,0 mm 1,0 km/h (0 Bft) W 270 11,9 C 0,0 km/h (0 Bft)
03.09.2015 09:30 14,0 C 14,4 C 88 % 1008,6 hPa 0,0 mm 0,8 km/h (0 Bft) W 270 12,0 C 0,0 km/h (0 Bft)
03.09.2015 09:35 14,1 C 14,6 C 88 % 1008,8 hPa 0,0 mm 0,3 km/h (0 Bft) SW 225 12,1 C 0,0 km/h (0 Bft)
03.09.2015 09:40 14,2 C 14,8 C 88 % 1008,8 hPa 0,0 mm 1,3 km/h (1 Bft) W-SW 247 12,2 C 4,9 km/h (1 Bft)
03.09.2015 09:45 14,2 C 14,8 C 88 % 1008,8 hPa 0,0 mm 3,1 km/h (1 Bft) W 270 12,2 C 4,4 km/h (1 Bft)
03.09.2015 09:50 14,4 C 14,9 C 88 % 1008,8 hPa 0,0 mm 3,4 km/h (1 Bft) NW 315 12,4 C 7,8 km/h (2 Bft)
03.09.2015 09:55 14,4 C 15,0 C 88 % 1009,0 hPa 0,0 mm 3,6 km/h (1 Bft) W 270 12,4 C 8,3 km/h (2 Bft)
03.09.2015 10:00 14,6 C 15,6 C 87 % 1009,0 hPa 0,0 mm 3,4 km/h (1 Bft) W-SW 247 12,5 C 5,7 km/h (1 Bft)
03.09.2015 10:05 14,9 C 16,4 C 87 % 1009,0 hPa 0,0 mm 2,3 km/h (1 Bft) SW 225 12,8 C 0,0 km/h (0 Bft)
03.09.2015 10:10 15,3 C 17,2 C 87 % 1009,0 hPa 0,0 mm 3,9 km/h (1 Bft) W-SW 247 13,1 C 0,0 km/h (0 Bft)
03.09.2015 10:15 15,3 C 17,5 C 87 % 1009,1 hPa 0,0 mm 3,4 km/h (1 Bft) W 270 13,1 C 2,8 km/h (1 Bft)
03.09.2015 10:20 15,2 C 17,4 C 86 % 1009,1 hPa 0,0 mm 2,1 km/h (1 Bft) W-NW 292 12,9 C 4,4 km/h (1 Bft)
03.09.2015 10:25 15,2 C 17,2 C 86 % 1009,1 hPa 0,0 mm 3,1 km/h (1 Bft) NW 315 12,9 C 4,9 km/h (1 Bft)
03.09.2015 10:30 15,2 C 16,8 C 86 % 1009,1 hPa 0,0 mm 4,4 km/h (1 Bft) W-NW 292 12,9 C 0,0 km/h (0 Bft)
03.09.2015 10:35 15,1 C 16,7 C 86 % 1009,3 hPa 0,0 mm 3,6 km/h (1 Bft) W 270 12,8 C 5,7 km/h (1 Bft)
03.09.2015 10:40 15,1 C 16,8 C 86 % 1009,3 hPa 0,0 mm 2,3 km/h (1 Bft) W-NW 292 12,8 C 9,8 km/h (2 Bft)
03.09.2015 10:45 15,1 C 16,9 C 85 % 1009,3 hPa 0,0 mm 4,7 km/h (1 Bft) W 270 12,6 C 6,5 km/h (2 Bft)
03.09.2015 10:50 15,3 C 17,8 C 85 % 1009,3 hPa 0,0 mm 6,0 km/h (2 Bft) NW 315 12,8 C 15,3 km/h (3 Bft)
03.09.2015 10:55 15,5 C 18,2 C 85 % 1009,4 hPa 0,0 mm 4,4 km/h (1 Bft) SW 225 13,0 C 4,9 km/h (1 Bft)
03.09.2015 11:00 15,7 C 18,9 C 85 % 1009,4 hPa 0,0 mm 5,4 km/h (1 Bft) NW 315 13,2 C 7,0 km/h (2 Bft)
03.09.2015 11:05 15,6 C 18,7 C 84 % 1009,4 hPa 0,0 mm 5,2 km/h (1 Bft) W 270 12,9 C 5,2 km/h (1 Bft)
03.09.2015 11:10 15,8 C 18,8 C 84 % 1009,4 hPa 0,0 mm 5,2 km/h (1 Bft) N-NW 337 13,1 C 7,0 km/h (2 Bft)
03.09.2015 11:15 15,8 C 18,9 C 83 % 1008,9 hPa 0,0 mm 3,9 km/h (1 Bft) W 270 12,9 C 2,6 km/h (1 Bft)
03.09.2015 11:20 15,6 C 18,6 C 82 % 1008,9 hPa 0,0 mm 2,6 km/h (1 Bft) NW 315 12,5 C 0,0 km/h (0 Bft)
03.09.2015 11:25 15,7 C 18,5 C 82 % 1008,9 hPa 0,0 mm 2,1 km/h (1 Bft) N-NW 337 12,6 C 6,7 km/h (2 Bft)
03.09.2015 11:30 15,7 C 18,2 C 82 % 1008,9 hPa 0,0 mm 3,4 km/h (1 Bft) N 360 12,6 C 6,5 km/h (2 Bft)
03.09.2015 11:35 15,7 C 18,0 C 81 % 1009,2 hPa 0,0 mm 3,6 km/h (1 Bft) W-NW 292 12,4 C 2,8 km/h (1 Bft)
03.09.2015 11:40 15,8 C 17,8 C 81 % 1009,2 hPa 0,0 mm 2,3 km/h (1 Bft) W-NW 292 12,5 C 5,4 km/h (1 Bft)
03.09.2015 11:45 15,7 C 17,8 C 81 % 1009,2 hPa 0,0 mm 2,8 km/h (1 Bft) SW 225 12,4 C 4,1 km/h (1 Bft)
03.09.2015 11:50 15,7 C 17,6 C 80 % 1009,2 hPa 0,0 mm 1,8 km/h (1 Bft) NW 315 12,3 C 4,7 km/h (1 Bft)
03.09.2015 11:55 15,6 C 17,4 C 80 % 1009,4 hPa 0,0 mm 1,6 km/h (1 Bft) W-NW 292 12,2 C 9,1 km/h (2 Bft)
03.09.2015 12:00 15,4 C 16,6 C 80 % 1009,4 hPa 0,0 mm 3,1 km/h (1 Bft) N-NW 337 12,0 C 0,0 km/h (0 Bft)
03.09.2015 12:05 15,4 C 16,3 C 80 % 1009,4 hPa 0,0 mm 3,1 km/h (1 Bft) W 270 12,0 C 6,0 km/h (2 Bft)
03.09.2015 12:10 15,0 C 15,8 C 80 % 1009,4 hPa 0,0 mm 3,4 km/h (1 Bft) W-SW 247 11,6 C 7,0 km/h (2 Bft)
03.09.2015 12:15 14,9 C 15,4 C 81 % 1009,3 hPa 0,0 mm 2,8 km/h (1 Bft) NW 315 11,7 C 0,0 km/h (0 Bft)
03.09.2015 12:20 14,7 C 15,0 C 81 % 1009,3 hPa 0,0 mm 2,1 km/h (1 Bft) W 270 11,5 C 7,3 km/h (2 Bft)
03.09.2015 12:25 14,7 C 14,8 C 81 % 1009,3 hPa 0,0 mm 1,6 km/h (1 Bft) S-SO 157 11,5 C 0,0 km/h (0 Bft)
03.09.2015 12:30 14,5 C 14,8 C 81 % 1009,3 hPa 0,0 mm 1,0 km/h (0 Bft) S 180 11,3 C 0,0 km/h (0 Bft)
03.09.2015 12:35 14,4 C 14,9 C 82 % 1009,2 hPa 0,0 mm 0,5 km/h (0 Bft) S 180 11,4 C 0,0 km/h (0 Bft)
03.09.2015 12:40 14,4 C 15,0 C 82 % 1009,2 hPa 0,0 mm 0,3 km/h (0 Bft) W-SW 247 11,4 C 0,0 km/h (0 Bft)
03.09.2015 12:45 14,8 C 15,3 C 83 % 1009,2 hPa 0,0 mm 0,3 km/h (0 Bft) W 270 11,9 C 0,0 km/h (0 Bft)
03.09.2015 12:46 14,8 C 15,3 C 83 % 1009,2 hPa 0,0 mm 0,3 km/h (0 Bft) W 270 11,9 C 0,0 km/h (0 Bft)
03.09.2015 12:50 14,8 C 15,3 C 83 % 1009,2 hPa 0,0 mm 0,3 km/h (0 Bft) W 270 11,9 C 0,0 km/h (0 Bft)
03.09.2015 12:55 15,0 C 15,4 C 82 % 1009,1 hPa 0,0 mm 0,5 km/h (0 Bft) NW 315 12,0 C 6,0 km/h (2 Bft)
03.09.2015 13:00 15,1 C 15,6 C 82 % 1009,1 hPa 0,0 mm 1,3 km/h (1 Bft) NW 315 12,0 C 2,6 km/h (1 Bft)
03.09.2015 13:05 15,2 C 15,6 C 82 % 1009,1 hPa 0,0 mm 1,6 km/h (1 Bft) W 270 12,1 C 0,0 km/h (0 Bft)
03.09.2015 13:10 15,3 C 15,7 C 82 % 1009,1 hPa 0,0 mm 0,5 km/h (0 Bft) W-NW 292 12,2 C 0,0 km/h (0 Bft)
03.09.2015 13:15 15,4 C 15,9 C 82 % 1008,9 hPa 0,0 mm 0,5 km/h (0 Bft) NW 315 12,3 C 2,8 km/h (1 Bft)
03.09.2015 13:20 15,5 C 15,9 C 82 % 1008,9 hPa 0,0 mm 1,3 km/h (1 Bft) W-SW 247 12,4 C 0,0 km/h (0 Bft)
03.09.2015 13:25 15,5 C 15,9 C 82 % 1008,9 hPa 0,0 mm 1,0 km/h (0 Bft) S 180 12,4 C 0,0 km/h (0 Bft)
03.09.2015 13:30 15,4 C 15,8 C 81 % 1008,9 hPa 0,0 mm 0,8 km/h (0 Bft) W-NW 292 12,2 C 0,0 km/h (0 Bft)
03.09.2015 13:35 15,3 C 15,7 C 81 % 1008,9 hPa 0,0 mm 0,8 km/h (0 Bft) S 180 12,1 C 0,0 km/h (0 Bft)
03.09.2015 13:40 15,2 C 15,5 C 82 % 1008,9 hPa 0,0 mm 0,0 km/h (0 Bft) NW 315 12,1 C 0,0 km/h (0 Bft)
03.09.2015 13:45 15,2 C 15,2 C 82 % 1008,9 hPa 0,0 mm 0,3 km/h (0 Bft) W-SW 247 12,1 C 0,0 km/h (0 Bft)
03.09.2015 13:50 15,1 C 15,1 C 82 % 1008,9 hPa 0,0 mm 0,3 km/h (0 Bft) W-SW 247 12,0 C 0,0 km/h (0 Bft)
03.09.2015 13:55 15,1 C 15,1 C 82 % 1009,0 hPa 0,0 mm 0,3 km/h (0 Bft) NW 315 12,0 C 0,0 km/h (0 Bft)
03.09.2015 14:00 15,1 C 15,1 C 82 % 1009,0 hPa 0,0 mm 1,0 km/h (0 Bft) S-SW 202 12,0 C 0,0 km/h (0 Bft)
03.09.2015 14:05 15,1 C 15,3 C 82 % 1009,0 hPa 0,0 mm 1,3 km/h (1 Bft) SW 225 12,0 C 0,0 km/h (0 Bft)
03.09.2015 14:10 15,2 C 15,3 C 82 % 1009,0 hPa 0,0 mm 1,0 km/h (0 Bft) N-NW 337 12,1 C 0,0 km/h (0 Bft)
03.09.2015 14:15 15,2 C 15,2 C 82 % 1009,2 hPa 0,7 mm 1,8 km/h (1 Bft) W 270 12,1 C 4,9 km/h (1 Bft)
03.09.2015 14:20 14,9 C 14,8 C 83 % 1009,2 hPa 0,0 mm 4,7 km/h (1 Bft) W 270 12,0 C 15,5 km/h (3 Bft)
03.09.2015 14:25 14,8 C 14,7 C 83 % 1009,2 hPa 0,0 mm 5,2 km/h (1 Bft) W-SW 247 11,9 C 7,5 km/h (2 Bft)
03.09.2015 14:30 14,5 C 14,5 C 83 % 1009,2 hPa 0,0 mm 6,2 km/h (2 Bft) W-SW 247 11,6 C 5,2 km/h (1 Bft)
03.09.2015 14:35 14,5 C 14,4 C 83 % 1009,1 hPa 0,0 mm 5,4 km/h (1 Bft) S-SO 157 11,6 C 0,0 km/h (0 Bft)
03.09.2015 14:40 14,2 C 14,0 C 83 % 1009,1 hPa 0,0 mm 4,1 km/h (1 Bft) W 270 11,4 C 5,7 km/h (1 Bft)
03.09.2015 14:45 14,2 C 14,0 C 84 % 1009,1 hPa 0,0 mm 4,1 km/h (1 Bft) NW 315 11,5 C 3,1 km/h (1 Bft)
03.09.2015 14:50 14,3 C 14,2 C 83 % 1009,1 hPa 0,0 mm 3,4 km/h (1 Bft) W 270 11,5 C 4,7 km/h (1 Bft)
03.09.2015 14:55 14,3 C 14,4 C 83 % 1009,1 hPa 0,0 mm 4,1 km/h (1 Bft) W-NW 292 11,5 C 9,6 km/h (2 Bft)
03.09.2015 15:00 14,3 C 14,3 C 83 % 1009,1 hPa 0,0 mm 5,4 km/h (1 Bft) W 270 11,5 C 4,9 km/h (1 Bft)
03.09.2015 15:05 14,3 C 14,3 C 83 % 1009,1 hPa 0,0 mm 6,2 km/h (2 Bft) W-SW 247 11,5 C 7,0 km/h (2 Bft)
03.09.2015 15:10 14,3 C 14,2 C 83 % 1009,1 hPa 0,0 mm 6,5 km/h (2 Bft) NW 315 11,5 C 6,2 km/h (2 Bft)
03.09.2015 15:15 14,2 C 14,1 C 83 % 1009,1 hPa 0,0 mm 6,2 km/h (2 Bft) N-NO 22 11,4 C 4,9 km/h (1 Bft)
03.09.2015 15:20 14,0 C 13,9 C 84 % 1009,1 hPa 0,0 mm 7,0 km/h (2 Bft) W-NW 292 11,3 C 17,1 km/h (3 Bft)
03.09.2015 15:25 14,0 C 13,8 C 84 % 1009,1 hPa 0,0 mm 7,5 km/h (2 Bft) N-NW 337 11,3 C 9,3 km/h (2 Bft)
03.09.2015 15:30 14,0 C 13,9 C 83 % 1009,1 hPa 0,0 mm 7,0 km/h (2 Bft) N-NO 22 11,2 C 7,8 km/h (2 Bft)
03.09.2015 15:35 13,9 C 13,8 C 84 % 1008,8 hPa 0,0 mm 6,2 km/h (2 Bft) NW 315 11,2 C 7,0 km/h (2 Bft)
03.09.2015 15:40 13,9 C 13,8 C 84 % 1008,8 hPa 0,0 mm 4,4 km/h (1 Bft) W-NW 292 11,2 C 7,0 km/h (2 Bft)
03.09.2015 15:45 13,9 C 13,7 C 84 % 1008,8 hPa 0,0 mm 4,4 km/h (1 Bft) NW 315 11,2 C 8,8 km/h (2 Bft)
03.09.2015 15:50 13,9 C 13,7 C 85 % 1008,8 hPa 0,0 mm 4,4 km/h (1 Bft) W 270 11,4 C 8,5 km/h (2 Bft)
03.09.2015 15:55 13,8 C 13,6 C 85 % 1008,6 hPa 0,0 mm 6,2 km/h (2 Bft) NW 315 11,3 C 14,2 km/h (3 Bft)
03.09.2015 16:00 13,7 C 13,5 C 85 % 1008,6 hPa 0,0 mm 7,5 km/h (2 Bft) NW 315 11,2 C 3,6 km/h (1 Bft)
03.09.2015 16:05 13,6 C 13,4 C 85 % 1008,6 hPa 0,0 mm 7,0 km/h (2 Bft) W-NW 292 11,1 C 7,3 km/h (2 Bft)
03.09.2015 16:10 13,4 C 13,2 C 85 % 1008,6 hPa 0,0 mm 5,4 km/h (1 Bft) NW 315 10,9 C 6,2 km/h (2 Bft)
03.09.2015 16:15 13,3 C 13,1 C 85 % 1008,5 hPa 0,0 mm 4,4 km/h (1 Bft) N-NO 22 10,8 C 0,0 km/h (0 Bft)
03.09.2015 16:20 13,2 C 13,0 C 85 % 1008,5 hPa 0,0 mm 1,6 km/h (1 Bft) SW 225 10,7 C 4,7 km/h (1 Bft)
03.09.2015 16:25 13,0 C 12,9 C 85 % 1008,5 hPa 0,7 mm 1,8 km/h (1 Bft) SW 225 10,5 C 7,0 km/h (2 Bft)
03.09.2015 16:30 12,9 C 12,7 C 86 % 1008,5 hPa 1,4 mm 2,6 km/h (1 Bft) S-SW 202 10,6 C 0,0 km/h (0 Bft)
03.09.2015 16:35 12,8 C 12,6 C 86 % 1009,1 hPa 0,0 mm 1,3 km/h (1 Bft) W-SW 247 10,5 C 0,0 km/h (0 Bft)
03.09.2015 16:40 12,7 C 12,6 C 86 % 1009,1 hPa 0,7 mm 0,3 km/h (0 Bft) S 180 10,4 C 3,9 km/h (1 Bft)
03.09.2015 16:45 12,5 C 12,4 C 86 % 1009,1 hPa 0,7 mm 1,3 km/h (1 Bft) SW 225 10,2 C 5,4 km/h (1 Bft)
03.09.2015 16:50 12,3 C 12,2 C 86 % 1009,1 hPa 0,7 mm 2,3 km/h (1 Bft) NW 315 10,0 C 0,0 km/h (0 Bft)
03.09.2015 16:55 12,2 C 12,1 C 86 % 1009,4 hPa 0,7 mm 2,1 km/h (1 Bft) W 270 9,9 C 0,0 km/h (0 Bft)
03.09.2015 17:00 12,2 C 12,1 C 86 % 1009,4 hPa 0,7 mm 1,3 km/h (1 Bft) O-NO 67 9,9 C 0,0 km/h (0 Bft)
03.09.2015 17:05 12,3 C 12,1 C 87 % 1009,4 hPa 1,4 mm 0,8 km/h (0 Bft) N 360 10,2 C 5,4 km/h (1 Bft)
03.09.2015 17:10 12,4 C 12,5 C 85 % 1009,4 hPa 0,7 mm 1,3 km/h (1 Bft) O-SO 112 9,9 C 3,4 km/h (1 Bft)
03.09.2015 17:15 12,5 C 12,7 C 86 % 1009,2 hPa 0,0 mm 2,1 km/h (1 Bft) W-SW 247 10,2 C 0,0 km/h (0 Bft)
03.09.2015 17:20 12,7 C 13,0 C 86 % 1009,2 hPa 0,0 mm 1,8 km/h (1 Bft) NW 315 10,4 C 0,0 km/h (0 Bft)
03.09.2015 17:25 12,7 C 13,1 C 86 % 1009,2 hPa 0,0 mm 0,5 km/h (0 Bft) W-NW 292 10,4 C 0,0 km/h (0 Bft)
03.09.2015 17:30 12,8 C 13,0 C 86 % 1009,2 hPa 0,0 mm 0,3 km/h (0 Bft) W-SW 247 10,5 C 4,4 km/h (1 Bft)
03.09.2015 17:35 12,8 C 12,9 C 86 % 1009,1 hPa 0,0 mm 0,3 km/h (0 Bft) W 270 10,5 C 0,0 km/h (0 Bft)
03.09.2015 17:40 12,7 C 12,8 C 86 % 1009,1 hPa 0,0 mm 0,8 km/h (0 Bft) S 180 10,4 C 3,9 km/h (1 Bft)
03.09.2015 17:45 12,7 C 12,7 C 87 % 1009,1 hPa 0,0 mm 0,8 km/h (0 Bft) W-SW 247 10,6 C 0,0 km/h (0 Bft)
03.09.2015 17:50 12,6 C 12,6 C 86 % 1009,1 hPa 0,7 mm 1,3 km/h (1 Bft) W-SW 247 10,3 C 0,0 km/h (0 Bft)
03.09.2015 17:55 12,6 C 12,6 C 86 % 1009,4 hPa 0,0 mm 0,8 km/h (0 Bft) S 180 10,3 C 0,0 km/h (0 Bft)
03.09.2015 18:00 12,6 C 12,6 C 86 % 1009,4 hPa 0,0 mm 0,3 km/h (0 Bft) O 90 10,3 C 0,0 km/h (0 Bft)
03.09.2015 18:05 12,6 C 12,5 C 88 % 1009,4 hPa 0,0 mm 1,0 km/h (0 Bft) S-SW 202 10,7 C 2,6 km/h (1 Bft)
03.09.2015 18:10 12,5 C 12,4 C 88 % 1009,4 hPa 0,0 mm 0,8 km/h (0 Bft) O-NO 67 10,6 C 0,0 km/h (0 Bft)
03.09.2015 18:15 12,5 C 12,4 C 88 % 1009,4 hPa 0,0 mm 0,3 km/h (0 Bft) SO 135 10,6 C 0,0 km/h (0 Bft)
03.09.2015 18:20 12,4 C 12,3 C 88 % 1009,4 hPa 0,0 mm 0,0 km/h (0 Bft) S 180 10,5 C 0,0 km/h (0 Bft)
03.09.2015 18:25 12,4 C 12,3 C 88 % 1009,4 hPa 0,0 mm 0,0 km/h (0 Bft) SW 225 10,5 C 0,0 km/h (0 Bft)
03.09.2015 18:30 12,3 C 12,2 C 88 % 1009,4 hPa 0,0 mm 0,0 km/h (0 Bft) S-SO 157 10,4 C 0,0 km/h (0 Bft)
03.09.2015 18:35 12,2 C 12,1 C 88 % 1009,5 hPa 0,0 mm 0,0 km/h (0 Bft) S-SO 157 10,3 C 0,0 km/h (0 Bft)
03.09.2015 18:40 12,2 C 12,1 C 88 % 1009,5 hPa 0,7 mm 0,0 km/h (0 Bft) S-SO 157 10,3 C 0,0 km/h (0 Bft)
03.09.2015 18:45 12,2 C 12,1 C 88 % 1009,5 hPa 0,0 mm 0,0 km/h (0 Bft) SW 225 10,3 C 0,0 km/h (0 Bft)
03.09.2015 18:47 12,2 C 12,1 C 88 % 1009,5 hPa 0,0 mm 0,0 km/h (0 Bft) SO 135 10,3 C 0,0 km/h (0 Bft)
03.09.2015 18:50 12,2 C 12,1 C 88 % 1009,5 hPa 0,0 mm 0,0 km/h (0 Bft) SO 135 10,3 C 0,0 km/h (0 Bft)
03.09.2015 18:55 12,2 C 12,1 C 89 % 1009,5 hPa 0,0 mm 0,0 km/h (0 Bft) SO 135 10,4 C 0,0 km/h (0 Bft)
03.09.2015 19:00 12,2 C 12,1 C 89 % 1009,5 hPa 0,0 mm 0,0 km/h (0 Bft) O-NO 67 10,4 C 0,0 km/h (0 Bft)
03.09.2015 19:05 12,2 C 12,1 C 89 % 1009,5 hPa 0,0 mm 0,0 km/h (0 Bft) NW 315 10,4 C 0,0 km/h (0 Bft)
03.09.2015 19:10 12,2 C 12,1 C 89 % 1009,5 hPa 0,0 mm 0,0 km/h (0 Bft) SW 225 10,4 C 0,0 km/h (0 Bft)
03.09.2015 19:15 12,2 C 12,1 C 89 % 1009,1 hPa 0,0 mm 0,0 km/h (0 Bft) SW 225 10,4 C 0,0 km/h (0 Bft)
03.09.2015 19:20 12,1 C 12,0 C 89 % 1009,1 hPa 0,0 mm 0,0 km/h (0 Bft) N 360 10,3 C 0,0 km/h (0 Bft)
03.09.2015 19:25 12,0 C 11,9 C 89 % 1009,1 hPa 0,0 mm 0,0 km/h (0 Bft) NO 45 10,2 C 0,0 km/h (0 Bft)
03.09.2015 19:30 12,0 C 11,9 C 89 % 1009,1 hPa 0,0 mm 0,0 km/h (0 Bft) NO 45 10,2 C 0,0 km/h (0 Bft)
03.09.2015 19:35 11,9 C 11,8 C 89 % 1009,2 hPa 0,0 mm 0,0 km/h (0 Bft) O-SO 112 10,1 C 0,0 km/h (0 Bft)
03.09.2015 19:40 11,9 C 11,8 C 89 % 1009,2 hPa 0,0 mm 0,0 km/h (0 Bft) O-SO 112 10,1 C 0,0 km/h (0 Bft)
03.09.2015 19:45 11,9 C 11,8 C 89 % 1009,2 hPa 0,0 mm 0,0 km/h (0 Bft) SO 135 10,1 C 0,0 km/h (0 Bft)
03.09.2015 19:50 11,8 C 11,7 C 89 % 1009,2 hPa 0,0 mm 0,0 km/h (0 Bft) SO 135 10,0 C 0,0 km/h (0 Bft)
03.09.2015 19:55 11,7 C 11,6 C 89 % 1009,2 hPa 0,0 mm 0,0 km/h (0 Bft) SO 135 9,9 C 0,0 km/h (0 Bft)
03.09.2015 20:00 11,6 C 11,5 C 89 % 1009,2 hPa 0,0 mm 0,0 km/h (0 Bft) SW 225 9,8 C 0,0 km/h (0 Bft)
03.09.2015 20:05 11,6 C 11,5 C 89 % 1009,2 hPa 0,0 mm 0,3 km/h (0 Bft) NW 315 9,8 C 0,0 km/h (0 Bft)
03.09.2015 20:10 11,6 C 11,5 C 89 % 1009,2 hPa 0,0 mm 0,3 km/h (0 Bft) O-SO 112 9,8 C 0,0 km/h (0 Bft)
03.09.2015 20:15 11,6 C 11,5 C 89 % 1009,5 hPa 0,0 mm 0,0 km/h (0 Bft) SO 135 9,8 C 0,0 km/h (0 Bft)
03.09.2015 20:20 11,5 C 11,4 C 89 % 1009,5 hPa 0,0 mm 0,0 km/h (0 Bft) S-SO 157 9,8 C 0,0 km/h (0 Bft)
03.09.2015 20:25 11,5 C 11,4 C 90 % 1009,5 hPa 0,0 mm 0,0 km/h (0 Bft) O-SO 112 9,9 C 0,0 km/h (0 Bft)
03.09.2015 20:30 11,5 C 11,4 C 90 % 1009,5 hPa 0,0 mm 0,0 km/h (0 Bft) S-SO 157 9,9 C 0,0 km/h (0 Bft)
03.09.2015 20:35 11,5 C 11,4 C 90 % 1009,7 hPa 0,0 mm 0,0 km/h (0 Bft) SO 135 9,9 C 0,0 km/h (0 Bft)
03.09.2015 20:40 11,5 C 11,4 C 90 % 1009,7 hPa 0,0 mm 0,0 km/h (0 Bft) O-SO 112 9,9 C 0,0 km/h (0 Bft)
03.09.2015 20:45 11,5 C 11,4 C 90 % 1009,7 hPa 0,0 mm 0,0 km/h (0 Bft) O-SO 112 9,9 C 0,0 km/h (0 Bft)
03.09.2015 20:50 11,5 C 11,4 C 90 % 1009,7 hPa 0,0 mm 0,3 km/h (0 Bft) SW 225 9,9 C 5,4 km/h (1 Bft)
03.09.2015 20:55 11,5 C 11,4 C 90 % 1009,9 hPa 0,0 mm 0,3 km/h (0 Bft) W-SW 247 9,9 C 0,0 km/h (0 Bft)
03.09.2015 21:00 11,4 C 11,3 C 90 % 1009,9 hPa 0,0 mm 0,3 km/h (0 Bft) SO 135 9,8 C 0,0 km/h (0 Bft)
03.09.2015 21:05 11,4 C 11,3 C 91 % 1009,9 hPa 0,0 mm 0,0 km/h (0 Bft) S 180 10,0 C 0,0 km/h (0 Bft)
03.09.2015 21:10 11,4 C 11,3 C 91 % 1009,9 hPa 0,7 mm 0,0 km/h (0 Bft) SO 135 10,0 C 0,0 km/h (0 Bft)
03.09.2015 21:15 11,4 C 11,3 C 91 % 1009,8 hPa 0,0 mm 0,0 km/h (0 Bft) O-SO 112 10,0 C 0,0 km/h (0 Bft)
03.09.2015 21:20 11,4 C 11,3 C 90 % 1009,8 hPa 0,0 mm 0,0 km/h (0 Bft) NO 45 9,8 C 0,0 km/h (0 Bft)
03.09.2015 21:25 11,3 C 11,2 C 90 % 1009,8 hPa 0,0 mm 0,0 km/h (0 Bft) N-NO 22 9,7 C 0,0 km/h (0 Bft)
03.09.2015 21:30 11,3 C 11,2 C 91 % 1009,8 hPa 0,0 mm 0,0 km/h (0 Bft) N-NO 22 9,9 C 0,0 km/h (0 Bft)
03.09.2015 21:35 11,3 C 11,2 C 91 % 1010,1 hPa 0,0 mm 0,0 km/h (0 Bft) NW 315 9,9 C 0,0 km/h (0 Bft)
03.09.2015 21:40 11,3 C 11,2 C 91 % 1010,1 hPa 0,0 mm 0,0 km/h (0 Bft) W 270 9,9 C 0,0 km/h (0 Bft)
03.09.2015 21:45 11,3 C 11,2 C 91 % 1010,1 hPa 0,0 mm 0,0 km/h (0 Bft) NW 315 9,9 C 0,0 km/h (0 Bft)
03.09.2015 21:50 11,3 C 11,2 C 91 % 1010,1 hPa 0,0 mm 0,0 km/h (0 Bft) S 180 9,9 C 0,0 km/h (0 Bft)
03.09.2015 21:55 11,3 C 11,2 C 91 % 1010,2 hPa 0,7 mm 0,0 km/h (0 Bft) S 180 9,9 C 0,0 km/h (0 Bft)
03.09.2015 22:00 11,3 C 11,2 C 91 % 1010,2 hPa 0,0 mm 0,0 km/h (0 Bft) S-SW 202 9,9 C 0,0 km/h (0 Bft)
03.09.2015 22:05 11,3 C 11,2 C 91 % 1010,2 hPa 0,0 mm 0,0 km/h (0 Bft) SW 225 9,9 C 0,0 km/h (0 Bft)
03.09.2015 22:10 11,3 C 11,2 C 91 % 1010,2 hPa 0,0 mm 0,0 km/h (0 Bft) W-SW 247 9,9 C 0,0 km/h (0 Bft)
03.09.2015 22:15 11,3 C 11,2 C 91 % 1010,0 hPa 0,0 mm 0,0 km/h (0 Bft) W-SW 247 9,9 C 0,0 km/h (0 Bft)
03.09.2015 22:20 11,3 C 11,2 C 91 % 1010,0 hPa 0,0 mm 0,0 km/h (0 Bft) W-SW 247 9,9 C 0,0 km/h (0 Bft)
03.09.2015 22:25 11,3 C 11,2 C 91 % 1010,0 hPa 0,0 mm 0,0 km/h (0 Bft) S 180 9,9 C 0,0 km/h (0 Bft)
03.09.2015 22:30 11,3 C 11,2 C 91 % 1010,0 hPa 0,0 mm 0,0 km/h (0 Bft) W-NW 292 9,9 C 0,0 km/h (0 Bft)
03.09.2015 22:35 11,3 C 11,2 C 91 % 1010,1 hPa 0,0 mm 0,0 km/h (0 Bft) SW 225 9,9 C 0,0 km/h (0 Bft)
03.09.2015 22:40 11,3 C 11,2 C 91 % 1010,1 hPa 0,0 mm 0,0 km/h (0 Bft) W-SW 247 9,9 C 0,0 km/h (0 Bft)
03.09.2015 22:45 11,3 C 11,2 C 91 % 1010,1 hPa 0,0 mm 0,0 km/h (0 Bft) S-SW 202 9,9 C 0,0 km/h (0 Bft)
03.09.2015 22:50 11,3 C 11,2 C 91 % 1010,1 hPa 0,0 mm 0,0 km/h (0 Bft) S-SW 202 9,9 C 0,0 km/h (0 Bft)
03.09.2015 22:55 11,3 C 11,2 C 91 % 1010,1 hPa 0,7 mm 0,0 km/h (0 Bft) S-SW 202 9,9 C 0,0 km/h (0 Bft)
03.09.2015 23:00 11,3 C 11,2 C 91 % 1010,1 hPa 0,0 mm 0,0 km/h (0 Bft) S-SW 202 9,9 C 0,0 km/h (0 Bft)
03.09.2015 23:05 11,3 C 11,2 C 91 % 1010,1 hPa 0,0 mm 0,0 km/h (0 Bft) S-SW 202 9,9 C 0,0 km/h (0 Bft)
03.09.2015 23:10 11,3 C 11,2 C 91 % 1010,1 hPa 0,0 mm 0,0 km/h (0 Bft) W-SW 247 9,9 C 0,0 km/h (0 Bft)
03.09.2015 23:15 11,3 C 11,2 C 91 % 1010,2 hPa 0,0 mm 0,0 km/h (0 Bft) W-NW 292 9,9 C 0,0 km/h (0 Bft)
03.09.2015 23:20 11,3 C 11,2 C 91 % 1010,2 hPa 0,0 mm 0,0 km/h (0 Bft) SW 225 9,9 C 0,0 km/h (0 Bft)
03.09.2015 23:25 11,3 C 11,2 C 91 % 1010,2 hPa 0,0 mm 0,0 km/h (0 Bft) S-SO 157 9,9 C 0,0 km/h (0 Bft)
03.09.2015 23:30 11,3 C 11,2 C 91 % 1010,2 hPa 0,0 mm 0,0 km/h (0 Bft) W 270 9,9 C 0,0 km/h (0 Bft)
03.09.2015 23:35 11,3 C 11,2 C 91 % 1009,9 hPa 0,0 mm 0,0 km/h (0 Bft) SW 225 9,9 C 0,0 km/h (0 Bft)
03.09.2015 23:40 11,3 C 11,2 C 91 % 1009,9 hPa 0,0 mm 0,8 km/h (0 Bft) W 270 9,9 C 6,0 km/h (2 Bft)
03.09.2015 23:45 11,3 C 11,2 C 91 % 1009,9 hPa 0,0 mm 2,1 km/h (1 Bft) NW 315 9,9 C 6,5 km/h (2 Bft)
03.09.2015 23:50 11,2 C 11,1 C 91 % 1009,9 hPa 0,0 mm 3,1 km/h (1 Bft) S 180 9,8 C 7,8 km/h (2 Bft)
03.09.2015 23:55 11,0 C 11,0 C 91 % 1010,5 hPa 0,7 mm 3,1 km/h (1 Bft) W 270 9,6 C 0,0 km/h (0 Bft)
_ Min-Zeit 23:55 23:55 12:10 07:50 - 23:35 - - 23:55 23:55
Minimum _ 11,0 C 11,0 C 80 % 1008,2 hPa - 0,0 km/h (0 Bft) - - 9,6 C 0,0 km/h (0 Bft)
_ Max-Zeit 11:40 11:15 07:25 23:55 17:05 16:00 - - 11:00 15:20
Maximum _ 15,8 C 18,9 C 92 % 1010,5 hPa 1,4 mm 7,5 km/h
NW (2 Bft)
- - 13,2 C 17,1 km/h
W-NW (3 Bft)
Durchschnitt _ 12,8 C 13,0 C 88 % 1009,2 hPa #13,1 mm 1,2 km/h (1 Bft) NW - 10,9 C 1,7 km/h (1 Bft)